DK4ARL Weather Reports


time (UTC)temp
C
wind
direction
speed
KPH
gust
KPH
rain 1hr
cm
rain 24hr
cm
rain mn
cm
humidity
%
barometer
mb
20260504184924 18 0.0 0.0 0.00 0.00 0.00 975.5
20260504183429 18 0.0 0.0 0.00 0.00 0.00 975.4
20260504181934 18 0.0 0.0 0.00 0.00 0.00 975.3
20260504180438 19 0.0 0.0 0.00 0.00 0.00 975.3
20260504174941 20 0.0 0.0 0.00 0.00 0.00 975.2
20260504173443 20 0.0 0.0 0.00 0.00 0.00 975.1
20260504171945 20 0.0 0.0 0.00 0.00 0.00 975.2
20260504170445 21 0.0 0.0 0.00 0.00 0.00 975.2
20260504160435 22 0.0 0.0 0.00 0.00 0.00 975.3
20260504140315 23 0.0 0.0 0.00 0.00 0.00 976.1
20260504130233 22 0.0 0.0 0.00 0.00 0.00 976.5
20260504120143 25 0.0 0.0 0.00 0.00 0.00 976.9
20260504081419 21 0.0 0.0 0.00 0.00 0.00 978.2
20260504050228 10 0.0 0.0 0.00 0.00 0.00 978.2
20260504044751 11 0.0 0.0 0.00 0.00 0.00 978.1
20260504043315 11 0.0 0.0 0.00 0.00 0.00 978.1
20260504041839 10 0.0 0.0 0.00 0.00 0.00 978.1
20260504040403 10 0.0 0.0 0.00 0.00 0.00 978.1
20260504034926 10 0.0 0.0 0.00 0.00 0.00 978.1
20260504030536 10 0.0 0.0 0.00 0.00 0.00 978.1
20260504025108 10 0.0 0.0 0.00 0.00 0.00 978.1
20260504023629 11 0.0 0.0 0.00 0.00 0.00 978.1
20260504022151 11 0.0 0.0 0.00 0.00 0.00 978.0
20260504015231 12 0.0 0.0 0.00 0.00 0.00 978.0
20260504013750 12 0.0 0.0 0.00 0.00 0.00 978.0
20260504012308 12 0.0 0.0 0.00 0.00 0.00 978.0
20260504010826 12 0.0 0.0 0.00 0.00 0.00 978.0
20260504005344 13 0.0 0.0 0.00 0.00 0.00 978.1
20260504003901 13 0.0 0.0 0.00 0.00 0.00 978.1
20260504002418 13 0.0 0.0 0.00 0.00 0.00 978.2
20260504000935 13 0.0 0.0 0.00 0.00 0.00 978.2
20260503231038 14 0.0 0.0 0.00 0.00 0.00 978.3
20260503225553 14 0.0 0.0 0.00 0.00 0.00 978.3
20260503224108 15 0.0 0.0 0.00 0.00 0.00 978.3
20260503222622 15 0.0 0.0 0.00 0.00 0.00 978.2
20260503221135 15 0.0 0.0 0.00 0.00 0.00 978.1
20260503215649 15 0.0 0.0 0.00 0.00 0.00 978.0
20260503214214 16 0.0 0.0 0.00 0.00 0.00 977.9
20260503212728 16 0.0 0.0 0.00 0.00 0.00 977.9
20260503211242 16 0.0 0.0 0.00 0.00 0.00 977.8
20260503205755 16 0.0 0.0 0.00 0.00 0.00 977.8
20260503202821 16 0.0 0.0 0.00 0.00 0.00 977.6
20260503201333 17 0.0 0.0 0.00 0.00 0.00 977.4
20260503195842 17 0.0 0.0 0.00 0.00 0.00 977.3
20260503192859 17 0.0 0.0 0.00 0.00 0.00 977.0
20260503191406 17 0.0 0.0 0.00 0.00 0.00 976.9